Weather in Urzhum

Russia / Kirov Oblast     57°06′35″N   50°00′20″E
В апреле 2022 года жителям России запретили посещать сайт meteo.paraplan.net по решению Генеральной прокуратуры. Аудитория сайта уменьшилась в 10 раз. Владельцы сайта не видят смысла в поддержке погодного сервера в таких условиях. Сайт будет закрыт в октябре.
temp.,
°C
wind,
m/s
gust,
m/s
humid.,
%
clouds,
%
prec.,
mm/h
press.,
hPa
HPBL,
m
25 september, sun
sun2500:00+9sw3490100 0.0 100961
03:00+9sw1181100 0.0 101011
06:00+9s1178100 0.0 101012
09:00+11n1168100 0.1 1009271
12:00+12nw2369100 0.3 1008532
15:00+10nnw3789100 2.4 1006441
18:00+9wnw6996100 11.4 1003447
21:00+9wnw81295100 21.9 1000635
26 september, mon
mon2600:00+8w7994100 2.3 1000605
03:00+8wsw61190100 2.9 1002743
06:00+8ssw4791100 0.3 1005347
09:00+9ssw3481100 0.3 1007331
12:00+10se3478100 0.0 1009617
15:00+10e3484100 0.4 1010284
18:00+9ene4890100 0.6 1011280
21:00+8e4896100 1.8 1012445
27 september, tue
tue2700:00+6e5795100 1.8 1013319
03:00+6e4595100 2.0 1014302
06:00+5ene4596100 0.3 1014316
09:00+5e4594100 0.8 1015372
12:00+5e3491100 0.1 1017400
15:00+5ene4492100 0.1 1017433
18:00+4ene4597100 0.1 1018357
21:00+3ene3597100 0.3 1019394
28 september, wed
wed2800:00+3ene3497100 0.3 1019492
03:00+3ene4699100 0.6 1020429
06:00+2ene4698100 0.2 1021517
09:00+3ene5691100 0.3 1021619
12:00+5e567088 0.0 1022939
15:00+6e5760100 0.0 10211355
18:00+3ene410735 0.0 1022208
21:00+1ene512805 0.0 1023400
29 september, thu
thu2900:00−1ene510898 0.0 1024328
03:00−2ene5118924 0.0 1024334
06:00−2ene5138310 0.0 1024427
09:00+3e812575 0.0 1023846
12:00+6e810455 0.0 10231220
15:00+7e710495 0.0 10231319
18:00+3ene613615 0.0 1025474
21:00+1ene613695 0.0 1026498